星链-3900 (STARLINK-3900 )

导读

STARLINK-3900是美国SpaceX公司星链低轨互联网星座中的卫星,于2022年5月6日发射入轨。星链星座旨在为全球提供高速卫星互联网服务,该卫星运行在近地轨道,依托自主防撞、激光星间链路等技术,助力星座实现全球宽带覆盖,服务涵盖民用上网、偏远地区通信、军事通信等场景,是星链规模化组网进程中的组成单元。

Basic Information
目录编号:
52461
目录名称:
STARLINK-3900
国际标识:
2022-049L
轨道中心:
EARTH
卫星名称:
星链-3900
卫星全名:
星链-3900 (STARLINK-3900 )
卫星状态:
在轨 (已飞行1503 天)
发射日期:
2022-05-06 UTC
国别 :
美国 (US)
星等 :
--
Orbit Information
数据来源 国际轨道数据 AOE轨道数据
星历时间 2026-06-17T11:58:52+0800
12小时前
查看轨道信息
2026-06-17T07:00:00+0800
17小时前
查看轨道信息
半长轴 6917.881km 6917.894km
偏心率 0.0001817 0.0000291
轨道倾角 53.160° 53.161°
近地点辐角 56.045° 309.959°
升交点赤经 322.458° 323.391°
平近点角 304.072° 2.234°
近地点 538.487km 539.555km
远地点 541.001km 539.959km
周期 95.438分钟 95.438分钟
每日圈数 15.0884 15.088356
Detailed Information
固有亮度:
5
最大亮度:
2.5
卫星平台:
Starlink v1.5
覆盖范围:
全球
运营商:
太空探索技术公司
运营商所在国:
美国
制造商(研发单位):
太空探索技术公司
制造商所在国:
美国
使用方式:
暂无
Satellite Introduction
星链(Starlink)计划是由太空探索技术公司(SpaceX)提出的一个巨型低轨卫星互联网星座项目,计划在2019年至2024年间在太空搭建由约1.2万颗卫星组成的“星链”网络,其中1584颗将部署在地球上空550千米处的近地轨道,并从2020年开始工作。该卫星仍在工作。
2D Orbit Map
3D Orbit Map
Orbit Altitude Analysis Chart
Orbit Inclination Analysis Chart
Orbit Comprehensive Analysis Chart
View Comprehensive Chart